Flag Weather past 2 weeks in Londonderry, Northern Ireland, United Kingdom

Now
59 °F

Scattered clouds.


Feels Like: 58 °F
Forecast: N/A
Wind: 7 mph from Southwest

Location: Eglinton / Londonderry

Current Time: Oct 31, 2014 at 3:09:40 PM

Latest Report: Oct 31, 2014 at 2:20 PM


Visibility: N/A

Pressure: 29.56 "Hg

Humidity: 94%

Dew point: 57 °F

Location of LondonderryLocation

Historic Weather in Londonderry — Graph

°F

Londonderry temperature yesterday

Maximum temperature yesterday: 63 °F (at 11:20 AM)
Minimum temperature yesterday: 57 °F (at 5:50 AM)
Average temperature yesterday: 61 °F

Past Weeks' High & Low Weather Summary

 TemperatureHumidityPressure
High64 °F (Oct 18, 12:20 PM)100% (Oct 31, 1:20 PM)30.09 "Hg (Oct 31, 1:20 PM)
Low37 °F (Oct 29, 5:50 AM)58% (Oct 21, 2:50 PM)29.27 "Hg (Oct 18, 5:50 AM)
Average55 °F83%29.67 "Hg
* Reported Oct 16 2:20 PM — Oct 31 1:50 PM, Londonderry, Weather by CustomWeather, © 2014

Note: Actual official high and low records may vary slightly from our data, if they occured in-between our weather recording intervals... More about our weather records

Advertising

Londonderry weather history for previous 24 hours

 ConditionsComfort  
Time TempWeatherWind HumidityBarometerVisibility
1:50 PM
Oct 31
59 °FBroken clouds.7 mph94%29.59 "HgN/A
1:20 PM57 °FLight rain. Partly sunny.7 mph100%29.59 "Hg2 mi
12:50 PM59 °FLight rain. Broken clouds.10 mph94%29.59 "Hg2 mi
12:20 PM63 °FBroken clouds.13 mph88%29.59 "Hg4 mi
11:50 AM63 °FSprinkles. Broken clouds.16 mph83%29.56 "Hg5 mi
11:20 AM63 °FPartly sunny.15 mph88%29.56 "HgN/A
10:50 AM63 °FSprinkles. Broken clouds.17 mph88%29.59 "Hg6 mi
10:20 AM63 °FSprinkles. Partly sunny.22 mph83%29.56 "HgN/A
9:50 AM63 °FPartly sunny.18 mph83%29.56 "HgN/A
9:20 AM63 °FScattered clouds.20 mph83%29.56 "HgN/A
8:50 AM63 °FScattered clouds.17 mph83%29.59 "HgN/A
8:20 AM63 °FScattered clouds.16 mph83%29.59 "HgN/A
7:50 AM63 °FScattered clouds.16 mph83%29.59 "HgN/A
7:20 AM63 °FPassing clouds.18 mph83%29.59 "HgN/A
6:50 AM63 °FPassing clouds.21 mph83%29.56 "HgN/A
6:20 AM63 °FSprinkles. Passing clouds.20 mph83%29.59 "HgN/A
5:50 AM63 °FSprinkles. Passing clouds.18 mph83%29.59 "HgN/A
4:20 PM
Oct 30
63 °FPartly sunny.9 mph83%29.74 "HgN/A
3:50 PM63 °FPartly sunny.7 mph83%29.74 "HgN/A
3:20 PM63 °FBroken clouds.7 mph83%29.77 "HgN/A
Weather by CustomWeather, © 2014

See weather overviewHow to use our weather pages